User: anonymous   Login
Location: Newport
(44.6370°N, 124.0520°W)
Time: 01:41:03
(UTC-08:00)
Language:

Tiangong 2 - Orbit

View from above orbital plane
View from above orbital plane
View from above satellite
View from above satellite

Ground track
Ground track

The orbit data is extracted from the following two-line orbital elements,

1 41765U 16057A   17344.57405247 +.00004289 +00000-0 +56626-4 0  9997
2 41765 042.7857 026.6431 0002939 358.6634 127.2023 15.59780775070512
Epoch (UTC): 10 December 2017 13:46:38
Eccentricity: 0.0002939
inclination: 42.7857°
perigee height: 386 km
apogee height: 390 km
right ascension of ascending node: 26.6431°
argument of perigee: 358.6634°
revolutions per day: 15.59780775
mean anomaly at epoch: 127.2023°
orbit number at epoch: 7051

The dashed part of the orbit path shows where the satellite is in the earth's shadow,  

DLR